Iowa City, IA

8:33 AM CST on December 11, 2016 (GMT -0600)
Iowa City Municipal

Weather History for KIOW - February, 2014

Change the Weather History Date:

Wednesday, February 26, 2014

  Actual Average Record
Temperature  
Mean Temperature 9 °F 30 °F  
Max Temperature 23 °F 38 °F 62 °F (1976)
Min Temperature -6 °F 22 °F -9 °F (1963)
Degree Days  
Heating Degree Days 56 35  
Month to date heating degree days 1327 1015  
Since 1 July heating degree days 5687 4882  
Cooling Degree Days 0 0  
Month to date cooling degree days 0 0  
Year to date cooling degree days 0 0  
Moisture  
Dew Point -2 °F    
Average Humidity 62    
Maximum Humidity 75    
Minimum Humidity 49    
Precipitation  
Precipitation 0.00 in 0.05 in 0.35 in (1962)
Month to date precipitation 1.47 1.14  
Year to date precipitation 1.82 2.06  
Sea Level Pressure  
Sea Level Pressure 30.13 in    
Wind  
Wind Speed 14 mph (West)    
Max Wind Speed 28 mph    
Max Gust Speed 39 mph    
Visibility 10 miles    
Events      
T = Trace of Precipitation, MM = Missing Value Source: NWS Daily Summary

Daily Weather History Graph

Daily Weather History Graph

Search for Another Location

Airport or City:

Trip Planner

Search our weather history database for the weather conditions in past years. The results will help you decide how hot, cold, wet, or windy it might be!

Date:

Astronomy

Feb. 26, 2014 Rise Set
Actual Time 6:45 AM CST 5:53 PM CST
Civil Twilight 6:17 AM CST 6:21 PM CST
Nautical Twilight 5:45 AM CST 6:53 PM CST
Astronomical Twilight 5:13 AM CST 7:25 PM CST
Moon 4:33 AM CST (2/26) 3:06 PM CST (2/26)
Length of Visible Light 12h 03m
Length of Day
11h 07m
Waning Crescent, 10% of the Moon is Illuminated
Feb 26
Waning Crescent
Mar 1
New
Mar 8
First Quarter
Mar 16
Full
Mar 23
Last Quarter

Hourly Weather History & Observations

Time (CST) Temp. Windchill Dew Point Humidity Pressure Visibility Wind Dir Wind Speed Gust Speed Precip Events Conditions
12:52 AM -0.0 °F -18.7 °F -9.0 °F 66% 30.46 in 10.0 mi NW 13.8 mph - N/A   Clear
1:52 AM -0.9 °F -18.3 °F -9.0 °F 69% 30.45 in 10.0 mi NW 11.5 mph - N/A   Clear
2:52 AM -2.0 °F -21.2 °F -9.9 °F 69% 30.43 in 10.0 mi WNW 13.8 mph - N/A   Clear
3:52 AM -2.9 °F -20.8 °F -11.0 °F 68% 30.43 in 10.0 mi WNW 11.5 mph - N/A   Clear
4:52 AM -2.9 °F -18.8 °F -11.9 °F 65% 30.41 in 10.0 mi WNW 9.2 mph - N/A   Clear
5:52 AM -4.0 °F -17.8 °F -11.9 °F 69% 30.38 in 10.0 mi WNW 6.9 mph - N/A   Clear
6:52 AM -6.0 °F -16.9 °F -11.9 °F 75% 30.36 in 10.0 mi WSW 4.6 mph - N/A   Clear
7:52 AM -4.0 °F -17.8 °F -11.0 °F 72% 30.35 in 10.0 mi West 6.9 mph - N/A   Clear
8:52 AM -0.9 °F -17.4 °F -9.9 °F 66% 30.34 in 10.0 mi West 10.4 mph - N/A   Clear
9:52 AM 1.0 °F -15.8 °F -8.0 °F 66% 30.31 in 10.0 mi WSW 11.5 mph - N/A   Clear
10:52 AM 3.9 °F -13.0 °F -5.1 °F 66% 30.28 in 10.0 mi WSW 12.7 mph - N/A   Unknown
11:52 AM 7.0 °F -9.8 °F -2.0 °F 67% 30.23 in 10.0 mi SW 13.8 mph - N/A   Clear
12:52 PM 10.0 °F -5.9 °F -0.0 °F 64% 30.17 in 10.0 mi SW 13.8 mph - N/A   Clear
1:52 PM 12.9 °F -4.9 °F -0.0 °F 56% 30.10 in 10.0 mi SW 19.6 mph - N/A   Clear
2:52 PM 15.1 °F -1.6 °F 1.0 °F 54% 30.04 in 10.0 mi WSW 18.4 mph 27.6 mph N/A   Clear
3:52 PM 17.1 °F 0.6 °F 1.0 °F 50% 29.98 in 10.0 mi WSW 19.6 mph 31.1 mph N/A   Clear
4:52 PM 19.0 °F 4.5 °F 3.9 °F 52% 29.92 in 10.0 mi WSW 16.1 mph 23.0 mph N/A   Clear
5:52 PM 19.0 °F 5.0 °F 5.0 °F 54% 29.88 in 10.0 mi SW 15.0 mph - N/A   Clear
6:52 PM 19.9 °F 6.7 °F 6.1 °F 55% 29.86 in 10.0 mi SW 13.8 mph - N/A   Clear
7:52 PM 19.9 °F 5.7 °F 8.1 °F 60% 29.85 in 10.0 mi WSW 16.1 mph - N/A   Clear
8:52 PM 21.0 °F 7.6 °F 10.0 °F 63% 29.86 in 10.0 mi West 15.0 mph - N/A   Clear
9:52 PM 23.0 °F 8.0 °F 8.1 °F 53% 29.86 in 10.0 mi WNW 20.7 mph 27.6 mph N/A   Clear
10:52 PM 21.0 °F 5.4 °F 8.1 °F 57% 29.87 in 10.0 mi NW 20.7 mph 39.1 mph N/A   Clear
11:42 PM 17.1 °F -0.3 °F 8.1 °F 68% 29.87 in 10.0 mi NW 21.9 mph 32.2 mph N/A   Mostly Cloudy
11:52 PM 16.0 °F -2.5 °F 6.1 °F 65% 29.91 in 10.0 mi NW 24.2 mph 33.4 mph N/A   Mostly Cloudy
11:59 PM 15.1 °F -3.7 °F 1.9 °F 56% 29.88 in 10.0 mi NW 24.2 mph 34.5 mph N/A   Scattered Clouds